Weather History for Evansville, IN

Change the Weather History Date:

Monday, February 11, 2013

  Actual Average Record
Temperature  
Mean Temperature 42 °F 35 °F  
Max Temperature 52 °F 45 °F 75 °F (1999)
Min Temperature 32 °F 26 °F 1 °F (1955)
Degree Days  
Heating Degree Days 23 30  
Month to date heating degree days 315 338  
Since 1 July heating degree days 2880 3117  
Cooling Degree Days 0 0  
Month to date cooling degree days 0 0  
Year to date cooling degree days 0 0  
Moisture  
Dew Point 29 °F    
Average Humidity 64    
Maximum Humidity 89    
Minimum Humidity 38    
Precipitation  
Precipitation 0.00 in 0.12 in 1.02 in (2009)
Month to date precipitation 0.70 1.29  
Year to date precipitation 7.47 4.39  
Snow  
Snow 0.00 in 0.10 in 6.20 in (1985)
Month to date snowfall 0.8 1.6  
Since 1 July snowfall 11.8 8.5  
Snow Depth 0.00 in    
Sea Level Pressure  
Sea Level Pressure 30.04 in    
Wind  
Wind Speed 12 mph (WSW)    
Max Wind Speed 28 mph    
Max Gust Speed 35 mph    
Visibility 10 miles    
Events      
T = Trace of Precipitation, MM = Missing Value Source: NWS Daily Summary

Daily Weather History Graph

Daily Weather History Graph

Search for Another Location

Airport:

Trip Planner

Search our weather history database for the weather conditions in past years. The results will help you decide how hot, cold, wet, or windy it might be!

Date:

Astronomy

Feb. 11, 2013 Rise Set
Actual Time 6:44 AM CST 5:24 PM CST
Civil Twilight 6:17 AM CST 5:51 PM CST
Nautical Twilight 5:46 AM CST 6:22 PM CST
Astronomical Twilight 5:15 AM CST 6:53 PM CST
Moon 7:11 AM CST (2/11) 7:18 PM CST (2/11)
Length of Visible Light 11h 34m
Length of Day
10h 40m
Waxing Crescent, 3% of the Moon is Illuminated
Feb 11
Waxing Crescent
Feb 17
First Quarter
Feb 25
Full
Mar 4
Last Quarter
Mar 11
New

Hourly Weather History & Observations

Time (CST) Temp. Windchill Dew Point Humidity Pressure Visibility Wind Dir Wind Speed Gust Speed Precip Events Conditions
12:54 AM 52.0 °F - 48.0 °F 86% 29.83 in 10.0 mi SSW 11.5 mph - N/A   Clear
1:54 AM 52.0 °F - 46.9 °F 83% 29.84 in 10.0 mi SSW 12.7 mph - N/A   Clear
2:54 AM 52.0 °F - 37.9 °F 59% 29.85 in 10.0 mi WSW 19.6 mph 29.9 mph N/A   Clear
3:54 AM 50.0 °F - 30.0 °F 46% 29.88 in 10.0 mi WSW 20.7 mph 28.8 mph N/A   Clear
4:54 AM 46.0 °F 39.3 °F 28.9 °F 51% 29.92 in 10.0 mi West 16.1 mph 27.6 mph N/A   Clear
5:54 AM 43.0 °F 36.0 °F 28.0 °F 56% 29.96 in 10.0 mi West 13.8 mph 23.0 mph N/A   Clear
6:54 AM 39.9 °F 31.4 °F 28.0 °F 63% 29.99 in 10.0 mi West 16.1 mph 21.9 mph N/A   Clear
7:54 AM 41.0 °F 34.3 °F 27.0 °F 57% 30.03 in 10.0 mi WSW 11.5 mph - N/A   Clear
8:54 AM 43.0 °F 35.7 °F 27.0 °F 53% 30.05 in 10.0 mi WSW 15.0 mph - N/A   Clear
9:54 AM 45.0 °F 37.6 °F 28.9 °F 53% 30.08 in 10.0 mi WSW 17.3 mph 25.3 mph N/A   Clear
10:54 AM 46.9 °F - 28.9 °F 50% 30.07 in 10.0 mi West 16.1 mph - N/A   Clear
11:54 AM 48.0 °F - 28.9 °F 48% 30.06 in 10.0 mi WSW 18.4 mph 26.5 mph N/A   Clear
12:54 PM 50.0 °F - 28.9 °F 44% 30.07 in 10.0 mi West 16.1 mph - N/A   Clear
1:54 PM 51.1 °F - 28.0 °F 41% 30.06 in 10.0 mi West 17.3 mph 27.6 mph N/A   Clear
2:54 PM 51.1 °F - 27.0 °F 39% 30.06 in 10.0 mi West 17.3 mph 26.5 mph N/A   Clear
3:54 PM 51.1 °F - 27.0 °F 39% 30.07 in 10.0 mi WSW 15.0 mph 24.2 mph N/A   Clear
4:54 PM 48.9 °F - 25.0 °F 39% 30.07 in 10.0 mi West 16.1 mph - N/A   Clear
5:54 PM 45.0 °F 41.2 °F 26.1 °F 48% 30.09 in 10.0 mi West 6.9 mph - N/A   Clear
6:54 PM 37.9 °F 33.5 °F 26.1 °F 62% 30.11 in 10.0 mi WSW 5.8 mph - N/A   Clear
7:54 PM 39.0 °F - 27.0 °F 62% 30.11 in 10.0 mi Calm Calm - N/A   Clear
8:54 PM 36.0 °F - 27.0 °F 70% 30.14 in 10.0 mi Calm Calm - N/A   Clear
9:54 PM 35.6 °F - 28.4 °F 75% 30.14 in 10.0 mi Calm Calm - N/A   Clear
10:54 PM 34.0 °F - 26.1 °F 73% 30.16 in 10.0 mi Calm Calm - N/A   Clear
11:54 PM 33.1 °F - 25.0 °F 72% 30.16 in 10.0 mi Calm Calm - N/A   Clear